Fairfield, IL

3:00 PM CST on December 15, 2019 (GMT -0600)
Fairfield Municipal

Weather History for KFWC - October, 2019

Change the Weather History Date:

Tuesday, October 29, 2019

  Actual Average (WUND) Record (WUND)
Temperature  
Mean Temperature 50 °F -  
Max Temperature 55 °F - - (-1)
Min Temperature 43 °F - - (-1)
Degree Days  
Heating Degree Days 16    
Moisture  
Dew Point 47 °F    
Average Humidity 91    
Maximum Humidity 100    
Minimum Humidity 79    
Precipitation  
Precipitation 0.00 in - - ()
Sea Level Pressure  
Sea Level Pressure 30.15 in    
Wind  
Wind Speed 4 mph ()    
Max Wind Speed 7 mph    
Max Gust Speed -    
Visibility 9.4 miles    
Events      
Averages and records for this station are not official NWS values.
T = Trace of Precipitation, MM = Missing Value Source: Averaged Metar Reports

Daily Weather History Graph

Daily Weather History Graph

Search for Another Location

Airport or City:

Astronomy

Oct. 29, 2019 Rise Set
Actual Time 7:16 AM CDT 5:57 PM CDT
Civil Twilight 6:49 AM CDT 6:24 PM CDT
Nautical Twilight 6:18 AM CDT 6:55 PM CDT
Astronomical Twilight 5:47 AM CDT 7:26 PM CDT
Moon 8:49 AM CDT (10/29) 7:22 PM CDT (10/29)
Length of Visible Light 11h 35m
Length of Day
10h 41m
Waxing Crescent, 3% of the Moon is Illuminated
Oct 29
Waxing Crescent
Nov 4
First Quarter
Nov 12
Full
Nov 19
Last Quarter
Nov 26
New

Hourly Weather History & Observations

Time (CDT) Temp. Windchill Dew Point Humidity Pressure Visibility Wind Dir Wind Speed Gust Speed Precip Events Conditions
12:15 AM 55.6 °F - 52.7 °F 90% 30.04 in 10.0 mi SSW 3.5 mph - N/A   Overcast
12:35 AM 55.6 °F - 52.3 °F 89% 30.04 in 10.0 mi SW 3.5 mph - N/A   Overcast
12:55 AM 55.6 °F - 51.8 °F 87% 30.05 in 10.0 mi SW 4.6 mph - N/A   Overcast
1:15 AM 54.7 °F - 52.7 °F 93% 30.05 in 7.0 mi SW 5.8 mph - N/A   Overcast
1:35 AM 54.1 °F - 52.7 °F 95% 30.04 in 10.0 mi SSW 3.5 mph - N/A   Overcast
1:55 AM 54.0 °F - 52.7 °F 95% 30.05 in 10.0 mi SW 4.6 mph - N/A   Overcast
2:15 AM 53.8 °F - 52.7 °F 96% 30.04 in 10.0 mi SSW 6.9 mph - N/A   Overcast
2:35 AM 54.0 °F - 52.9 °F 96% 30.04 in 10.0 mi South 5.8 mph - N/A   Overcast
2:55 AM 53.8 °F - 53.1 °F 97% 30.04 in 10.0 mi South 3.5 mph - N/A   Overcast
3:15 AM 53.2 °F - 53.2 °F 100% 30.04 in 10.0 mi Calm Calm - N/A   Overcast
3:35 AM 52.5 °F - 52.5 °F 100% 30.04 in 10.0 mi Calm Calm - N/A   Scattered Clouds
3:55 AM 52.3 °F - 52.3 °F 100% 30.05 in 10.0 mi Calm Calm - N/A   Mostly Cloudy
4:15 AM 52.5 °F - 52.5 °F 100% 30.05 in 10.0 mi South 3.5 mph - N/A   Overcast
4:35 AM 52.2 °F - 52.2 °F 100% 30.05 in 10.0 mi Calm Calm - N/A   Overcast
4:55 AM 52.7 °F - 52.7 °F 100% 30.05 in 10.0 mi South 3.5 mph - N/A   Overcast
5:15 AM 53.1 °F - 53.1 °F 100% 30.06 in 10.0 mi SSW 3.5 mph - N/A   Overcast
5:35 AM 53.2 °F - 53.2 °F 100% 30.07 in 10.0 mi SSW 4.6 mph - N/A   Overcast
5:55 AM 53.2 °F - 53.2 °F 100% 30.07 in 10.0 mi SSW 3.5 mph - N/A   Overcast
6:15 AM 53.6 °F - 52.9 °F 97% 30.08 in 10.0 mi SSW 4.6 mph - N/A   Overcast
6:35 AM 53.4 °F - 52.7 °F 97% 30.08 in 10.0 mi SSW 3.5 mph - N/A   Overcast
6:55 AM 53.6 °F - 52.7 °F 97% 30.09 in 10.0 mi SSW 3.5 mph - N/A   Overcast
7:20 AM 53.6 °F - 52.7 °F 97% 30.09 in 10.0 mi SSW 3.5 mph - N/A   Overcast
7:35 AM 53.6 °F - 52.7 °F 97% 30.10 in 10.0 mi SSW 3.5 mph - N/A   Overcast
7:55 AM 53.6 °F - 52.7 °F 97% 30.12 in 10.0 mi SSW 3.5 mph - N/A   Overcast
8:15 AM 53.8 °F - 52.9 °F 97% 30.13 in 10.0 mi SSW 3.5 mph - N/A   Overcast
8:35 AM 53.6 °F - 52.9 °F 97% 30.15 in 7.0 mi West 5.8 mph - N/A   Overcast
8:55 AM 48.0 °F - 48.0 °F 100% 30.17 in 3.0 mi Calm Calm - N/A   Light Drizzle
9:15 AM 47.3 °F - 47.3 °F 100% 30.17 in 1.8 mi WNW 5.8 mph - N/A   Light Drizzle
9:35 AM 45.9 °F 44.6 °F 45.9 °F 100% 30.18 in 1.5 mi NW 3.5 mph - N/A   Light Drizzle
9:55 AM 45.5 °F - 45.5 °F 100% 30.18 in 7.0 mi Calm Calm - N/A   Overcast
10:15 AM 45.5 °F 43.2 °F 45.0 °F 98% 30.19 in 10.0 mi NNW 4.6 mph - N/A   Overcast
10:55 AM 45.9 °F 44.6 °F 43.7 °F 92% 30.21 in 10.0 mi NW 3.5 mph - N/A   Overcast
11:15 AM 46.2 °F - 43.5 °F 90% 30.22 in 10.0 mi Calm Calm - N/A   Overcast
11:35 AM 46.9 °F - 43.3 °F 87% 30.22 in 10.0 mi Calm Calm - N/A   Overcast
11:55 AM 49.1 °F - 44.1 °F 83% 30.21 in 10.0 mi North 4.6 mph - N/A   Overcast
12:15 PM 48.2 °F - 43.2 °F 83% 30.22 in 10.0 mi NNW 4.6 mph - N/A   Overcast
12:35 PM 48.4 °F - 43.2 °F 82% 30.21 in 10.0 mi North 4.6 mph - N/A   Overcast
12:55 PM 48.7 °F - 43.0 °F 80% 30.21 in 10.0 mi NNW 3.5 mph - N/A   Overcast
1:15 PM 48.9 °F - 43.0 °F 80% 30.20 in 10.0 mi Calm Calm - N/A   Overcast
1:35 PM 49.6 °F - 43.5 °F 79% 30.19 in 10.0 mi North 4.6 mph - N/A   Overcast
1:55 PM 49.8 °F - 43.5 °F 79% 30.19 in 7.0 mi NNW 4.6 mph - N/A   Overcast
2:15 PM 49.6 °F - 43.3 °F 79% 30.19 in 10.0 mi North 4.6 mph - N/A   Overcast
2:35 PM 48.6 °F - 43.0 °F 81% 30.19 in 10.0 mi NNW 3.5 mph - N/A   Overcast
2:55 PM 49.1 °F - 43.0 °F 79% 30.19 in 10.0 mi NNW 5.8 mph - N/A   Overcast
3:15 PM 48.4 °F - 42.6 °F 80% 30.20 in 10.0 mi NNW 5.8 mph - N/A   Overcast
3:35 PM 48.4 °F - 42.6 °F 80% 30.20 in 10.0 mi NNW 4.6 mph - N/A   Overcast
3:55 PM 47.7 °F - 42.3 °F 82% 30.21 in 10.0 mi North 4.6 mph - N/A   Overcast
4:15 PM 47.8 °F - 42.4 °F 82% 30.21 in 10.0 mi NW 4.6 mph - N/A   Overcast
4:35 PM 47.5 °F - 42.3 °F 82% 30.21 in 10.0 mi North 4.6 mph - N/A   Overcast
4:55 PM 46.9 °F - 42.3 °F 84% 30.21 in 10.0 mi North 4.6 mph - N/A   Overcast
5:15 PM 46.8 °F - 41.7 °F 83% 30.22 in 10.0 mi North 3.5 mph - N/A   Overcast
5:35 PM 46.6 °F - 41.9 °F 84% 30.21 in 10.0 mi North 5.8 mph - N/A   Overcast
5:55 PM 46.4 °F 42.9 °F 41.9 °F 84% 30.21 in 10.0 mi NNE 6.9 mph - N/A   Overcast
6:15 PM 46.0 °F 42.5 °F 41.7 °F 85% 30.20 in 10.0 mi North 6.9 mph - N/A   Overcast
6:35 PM 45.7 °F 43.4 °F 41.9 °F 87% 30.20 in 10.0 mi North 4.6 mph - N/A   Overcast
6:55 PM 45.5 °F 43.2 °F 41.9 °F 87% 30.20 in 10.0 mi North 4.6 mph - N/A   Overcast
7:35 PM 45.0 °F 41.8 °F 42.3 °F 90% 30.20 in 10.0 mi North 5.8 mph - N/A   Overcast
7:55 PM 44.8 °F 41.6 °F 41.9 °F 90% 30.20 in 10.0 mi NNE 5.8 mph - N/A   Overcast
8:15 PM 44.6 °F 41.4 °F 41.9 °F 90% 30.19 in 10.0 mi North 5.8 mph - N/A   Overcast
8:55 PM 44.6 °F 42.2 °F 41.9 °F 90% 30.19 in 10.0 mi North 4.6 mph - N/A   Overcast
9:15 PM 44.6 °F 42.2 °F 41.7 °F 90% 30.20 in 10.0 mi North 4.6 mph - N/A   Overcast
9:35 PM 44.6 °F 41.4 °F 41.9 °F 90% 30.19 in 10.0 mi North 5.8 mph - N/A   Overcast
9:55 PM 44.6 °F 41.4 °F 41.9 °F 90% 30.20 in 10.0 mi NNE 5.8 mph - N/A   Overcast
10:15 PM 44.4 °F 40.5 °F 42.1 °F 91% 30.20 in 10.0 mi NNE 6.9 mph - N/A   Overcast
10:35 PM 44.4 °F 40.5 °F 42.8 °F 94% 30.20 in 10.0 mi North 6.9 mph - N/A   Overcast
10:55 PM 44.1 °F 41.5 °F 43.0 °F 96% 30.20 in 10.0 mi North 4.6 mph - N/A   Overcast
11:55 PM 43.9 °F 39.9 °F 43.2 °F 97% 30.19 in 7.0 mi North 6.9 mph - N/A   Overcast